Terminal Aerodrome Forecast
Issued by NWS Cleveland, OH

Home | Current Version | Previous Version | Graphics & Text | Print | Product List | Glossary On
Versions: 1 2 3 4 5 6 7 8 9 10 11 12 13 14 15 16 17 18 19 20 21 22 23 24
871
FTUS41 KCLE 202330
TAFERI
TAF
KERI 202330Z 2100/2124 20010KT P6SM BKN060 WS020/21045KT
      TEMPO 2100/2103 5SM HZ
     FM211200 22014G22KT 5SM -SHRA OVC025
     FM211600 29014G22KT 3SM -SHRA OVC007
     FM212100 34010KT P6SM VCSH SCT012 OVC020=

USA.gov is the U.S. government's official web portal to all federal, state and local government web resources and services.